Regional Weather Roundup
Issued by NWS Upton, NY

Current Version | Previous Version | Text Only | Print | Product List | Glossary Off
Versions: 1 2 3 4 5 6 7 8 9 10 11 12 13 14 15 16 17 18 19 20 21 22 23 24 25 26 27 28 29 30 31 32 33 34 35 36 37 38 39 40 41 42 43 44 45 46 47 48 49 50
000 ASUS41 KOKX 300305 RWROKX REGIONAL WEATHER ROUNDUP NATIONAL WEATHER SERVICE NEW YORK NY 1000 PM EST THU JAN 29 2015 NOTE: "FAIR" INDICATES FEW OR NO CLOUDS BELOW 12,000 FEET WITH NO SIGNIFICANT WEATHER AND/OR OBSTRUCTIONS TO VISIBILITY. NYZ071-072-176-178-NJZ106-104-300400- NEW YORK CITY METRO AREA CITY SKY/WX TMP DP RH WIND PRES REMARKS CENTRAL PARK CLOUDY 35 24 64 W8 30.07S WCI 29 LAGUARDIA APRT CLOUDY 34 26 72 SW8 30.06S WCI 27 KENNEDY INTL CLOUDY 34 26 72 SW8 30.07F WCI 27 NEWARK/LIBERTY FLURRIES 32 24 72 S3 30.05F BRNX BOT. GARD N/A N/A N/A N/A SW3 30.07R TETERBORO CLOUDY 32 23 69 S7 30.05S WCI 26 $$ NYZ177-179-078>081-300400- LONG ISLAND NEW YORK CITY SKY/WX TMP DP RH WIND PRES REMARKS FARMINGDALE CLOUDY 33 28 81 SW3 30.06F ISLIP CLOUDY 33 27 78 E5 30.03F WCI 29 SHIRLEY CLOUDY 31 25 78 CALM 30.07F WESTHAMPTON CLOUDY 38 30 73 S7 30.07F WCI 33 MONTAUK POINT N/A 37 29 72 VRB5 30.08F WCI 33 $$ NYZ052-065-067-300400- HUDSON VALLEY CITY SKY/WX TMP DP RH WIND PRES REMARKS WHITE PLAINS CLOUDY 30 23 75 CALM 30.03R NEWBURGH CLOUDY 28 25 86 VRB3 30.03F MONTGOMERY CLOUDY 27 23 85 CALM 30.00F POUGHKEEPSIE LGT SNOW 30 23 75 CALM 30.04F ALBANY LGT SNOW 29 15 56 S17G26 29.98F WCI 17 $$ NJZ001-105-106-008-010-013-015-019>022-104-300400- NEW JERSEY CITY SKY/WX TMP DP RH WIND PRES REMARKS NEWARK/LIBERTY FLURRIES 32 24 72 S3 30.05F TETERBORO CLOUDY 32 23 69 S7 30.05S WCI 26 CALDWELL CLOUDY 31 20 63 S5 30.05F WCI 26 MORRISTOWN CLOUDY 30 19 64 S3 30.05F SOMERVILLE CLOUDY 31 20 63 CALM 30.02F SUSSEX CLOUDY 28 20 71 SW6 30.00F WCI 22 ANDOVER N/A 27 21 78 S5 30.00F WCI 22 TRENTON FLURRIES 31 21 66 S7 30.02F WCI 24 MILLVILLE CLOUDY 34 24 67 VRB6 30.02F WCI 29 ATLANTIC CITY CLOUDY 35 25 66 S10 30.03F WCI 27 WRIGHTSTOWN CLOUDY 31 24 75 S2 30.01S TOMS RIVER CLOUDY 34 28 80 S5 30.04F WCI 30 BELMAR CLOUDY 32 21 64 SE3 30.03F $$ PAZ047>061-062-071-300400- EASTERN PENNSYLVANIA CITY SKY/WX TMP DP RH WIND PRES REMARKS PHILADELPHIA FLURRIES 33 23 66 SE6 30.02F WCI 28 ALLENTOWN LGT SNOW 28 23 80 SE6 29.99F WCI 22 SCRANTON FLURRIES 27 20 75 S5 29.91F WCI 22 $$ CTZ002-004>006-009-010-012-RIZ004-006-007-MAZ004-011-015-300400- SOUTHERN NEW ENGLAND IN CT CITY SKY/WX TMP DP RH WIND PRES REMARKS BRADLEY INTL CLOUDY 29 22 75 S6 30.05F WCI 23 HARTFORD CLOUDY 29 22 75 CALM 30.07F DANBURY CLOUDY 29 20 69 SE6 30.03F WCI 23 WTRBRY/OXFORD CLOUDY 28 19 69 S5 30.03F WCI 23 BRIDGEPORT CLOUDY 32 28 85 SE3 30.07F MERIDEN CLOUDY 30 23 75 CALM 30.07F NEW HAVEN CLOUDY 33 27 78 CALM 30.07F CHESTER CLOUDY 32 28 86 S3 30.05F GROTON CLOUDY 34 29 82 SE9 30.07F WCI 27 WILLIMANTIC CLOUDY 29 21 72 CALM 30.07F IN RI CITY SKY/WX TMP DP RH WIND PRES REMARKS PROVIDENCE CLOUDY 27 19 72 E5 30.10F WCI 22 BLOCK ISLAND CLOUDY 34 27 75 S9 30.08F WCI 26 WESTERLY CLOUDY 34 28 79 SE9 30.09F WCI 27 IN MA CITY SKY/WX TMP DP RH WIND PRES REMARKS BOSTON CLOUDY 28 20 71 S7 30.11F WCI 21 WORCESTER CLOUDY 25 18 74 S10 30.02F WCI 15 WESTFIELD CLOUDY 29 20 69 S7 30.04F WCI 22 PROVINCETOWN MOCLDY 27 19 74 SE5 30.10F WCI 21 NANTUCKET MOCLDY 28 24 85 CALM 30.12F $$ ANZ330-335-338-340-345-350-353-355-300400- COASTAL MARINE OBSERVATIONS STATION/POSITION TIME SKY/WX TEMP WIND PRES VSBY WAVE AIR SEA DIR/SP/G HT/PER (UTC) (F) (DEG/KT/KT) (MB) (MI) (FT/S) NY HARB ENTRANCE 0300 38 39 240/ 14/ 17 1017.4 3/ 4 4S FIRE IS 0200 37 N/A 2/10 20S FIRE ISLAND 0200 42 1019.0 3/ 3 23SW MTP 0300 N/A 2/ 9 HUDSON CANYON NOT AVBL EXECUTION ROCKS 0300 32 33 100/ 2/ 4 N/A WESTERN LI SOUND 0300 32 90/ 6/ 8 N/A 0 CENTRAL LI SOUND 0200 34 35 120/ 8/ 8 N/A 0 EASTERN LI SOUND NOT AVBL ROBBINS REEF 0300 33 200/ 8/ 11 1016.8 $$ >>>>>>>>>>>>>>>>>>>>>>>>>>>> KEY <<<<<<<<<<<<<<<<<<<<<<<<<<< > < > SKY/WX - SKY CONDITION/PRESENT WEATHER < > TMP - TEMPERATURE IN FAHRENHEIT < > DP - DEWPOINT IN FAHRENHEIT < > RH - RELATIVE HUMIDITY IN PERCENT < > WIND - DIRECTION AND SPEED IN MPH < > PRES - MEAN SEA LEVEL PRESSURE IN INCHES OF HG < > WCI - WIND CHILL INDEX < > VSB - VISIBILITY IN MILES < > HX - HEAT INDEX < > TC - TEMPERATURE IN CELSIUS < > VRB - VARIABLE WIND DIRECTION < > < >>>>>>>>>>>>>>>>>>>>>>>>>>>> KEY <<<<<<<<<<<<<<<<<<<<<<<<<<<

USA.gov is the U.S. government's official web portal to all federal, state and local government web resources and services.